Theta_e
316 316 316 316 315 315 316 316 315 315 315 315 315 316 316 316 316 317 317 317 317 316 317 317 317 318 312 302 301 313 345 334 330 315 313 308 304 304 303 306 313 316 321 324 327 327 326
316 316 316 316 315 315 315 315 315 315 315 316 316 317 316 316 317 317 317 316 317 316 318 318 317 319 307 294 309 315 327 326 323 315 310 308 304 305 303 304 310 314 315 318 321 321 325
315 315 316 315 315 315 315 315 315 315 315 315 316 316 316 316 316 317 316 315 316 317 321 320 318 316 307 301 314 314 313 320 322 314 308 310 308 305 304 304 310 310 308 311 315 320 324
315 315 315 315 315 314 314 314 315 315 315 316 316 316 316 315 316 315 315 314 316 319 318 318 321 315 303 316 316 317 312 310 321 318 308 312 309 303 302 305 304 304 304 300 310 317 324
315 315 315 314 314 315 315 315 315 316 315 315 315 315 315 315 314 314 313 314 317 320 322 322 312 307 302 320 312 310 313 312 317 314 311 315 306 299 300 298 294 295 295 301 306 318 322
315 315 315 314 314 315 315 315 315 315 315 314 314 314 314 313 312 312 312 314 316 321 320 320 318 301 302 299 302 305 308 315 311 310 308 303 300 294 293 293 292 292 295 299 302 315 320
315 315 315 315 315 315 315 315 315 315 315 314 314 313 313 312 311 311 307 296 294 292 294 290 293 300 299 301 304 304 305 310 309 303 296 299 293 292 295 298 298 298 299 301 306 315 317
315 315 315 315 315 315 315 315 314 314 314 314 313 312 312 311 310 310 302 296 297 298 289 297 297 297 299 297 296 301 303 305 305 298 300 296 293 298 299 299 298 297 295 297 304 311 316
315 315 315 315 315 315 315 314 314 314 313 313 312 312 311 310 310 303 298 297 301 294 286 292 295 296 297 296 295 299 301 300 301 299 300 296 299 302 300 297 297 296 296 297 300 307 313
315 315 315 315 315 315 314 314 314 313 313 312 312 311 310 309 300 299 298 299 301 297 283 290 293 296 297 297 294 303 303 299 299 299 301 299 305 302 299 298 299 293 302 302 302 301 297
315 315 315 315 315 315 314 314 314 313 312 312 312 311 309 308 297 297 300 301 300 293 276 295 293 300 296 292 295 297 303 300 294 296 295 297 301 300 299 300 303 299 304 302 302 298 297
315 315 315 315 315 315 314 313 313 313 312 312 311 310 309 302 298 301 302 299 294 283 278 289 292 291 291 292 294 297 297 301 302 299 298 297 303 304 303 306 306 307 302 300 298 296 291
314 314 314 314 314 314 314 313 313 312 312 311 309 308 306 306 295 302 300 292 282 278 290 287 286 289 289 287 290 293 292 293 291 288 289 295 298 302 305 302 306 305 296 288 287 288 291
314 314 315 314 314 314 313 313 313 312 312 310 308 306 304 307 305 303 294 288 277 287 284 288 288 288 286 289 287 290 288 288 294 292 288 285 289 299 303 302 300 301 296 289 283 285 289
314 314 314 314 314 313 313 313 312 312 311 309 307 298 299 302 305 298 290 280 280 285 288 287 286 284 283 288 288 287 287 289 293 293 286 286 288 297 300 304 305 301 298 300 290 286 289
314 314 314 314 313 313 313 313 312 312 311 309 300 293 296 304 301 293 286 283 285 291 290 288 282 285 280 283 284 283 285 291 292 295 294 290 284 293 298 303 304 304 302 294 290 285 283
313 313 313 314 314 313 313 313 312 312 310 308 293 290 299 304 297 289 282 282 289 294 293 287 285 283 282 283 283 283 285 291 294 293 295 291 289 289 296 295 297 298 299 296 297 291 290
314 314 314 314 313 313 313 313 312 310 308 302 290 285 298 299 289 286 284 288 294 292 294 290 288 286 284 285 283 284 285 290 296 294 289 294 290 287 289 299 300 297 298 295 296 289 287
313 313 314 313 313 313 313 313 312 310 309 303 291 288 298 296 283 283 287 290 292 292 292 290 288 288 287 284 281 286 289 296 296 294 291 293 289 282 288 291 295 293 300 302 297 291 289
313 312 313 313 313 313 313 313 311 310 309 297 293 285 290 290 288 287 286 287 289 295 294 293 291 291 286 282 285 285 288 293 295 294 298 296 289 284 282 286 289 288 291 294 296 295 290
312 312 312 313 313 313 313 312 311 310 309 298 289 285 288 284 285 288 290 287 287 288 294 294 290 289 287 282 282 283 287 288 293 296 295 292 285 286 287 288 289 289 290 292 291 295 295
313 312 312 313 312 312 313 312 311 310 308 295 288 288 289 291 292 290 289 287 288 291 290 289 288 291 290 284 284 281 284 284 287 290 290 291 285 287 284 288 289 288 292 295 296 298 295
312 312 312 312 312 312 311 312 312 311 307 299 296 299 295 292 291 289 289 289 289 291 291 294 293 290 288 290 292 291 289 289 290 288 288 288 287 283 279 290 293 292 295 297 300 299 298
312 312 312 312 311 311 312 312 312 312 310 305 303 300 292 287 290 290 291 292 291 291 289 292 293 290 294 298 294 291 289 289 289 291 292 288 287 284 278 286 288 294 300 300 298 298 299
312 313 312 311 311 312 312 312 312 313 312 307 306 301 293 287 291 291 292 292 291 292 291 291 294 295 295 292 283 281 281 284 287 290 291 292 289 281 280 286 294 296 296 295 294 294 299
312 312 311 311 311 311 312 312 313 313 312 309 306 306 297 290 290 294 292 292 288 288 290 291 296 295 294 288 284 280 279 285 284 287 291 291 290 286 285 287 287 293 297 302 302 290 300
311 311 310 311 310 311 312 312 313 313 313 309 306 306 298 291 294 295 292 291 293 291 288 291 290 290 293 288 283 283 282 287 284 284 284 286 286 285 285 287 292 297 298 303 289 290 298
312 310 310 310 310 311 312 312 313 313 313 308 306 306 301 294 296 297 298 295 295 293 289 292 288 290 288 284 284 283 285 286 286 288 286 286 285 286 289 287 287 299 300 292 294 297 298
311 310 310 310 311 311 312 312 313 313 313 311 304 309 306 298 298 302 302 303 301 299 296 295 292 292 291 287 287 287 286 287 286 282 292 285 288 287 285 289 297 299 301 300 299 297 297
Wind_Speed
18 18 19 19 20 20 21 21 22 23 23 24 25 26 26 26 27 27 26 24 21 20 16 11 7 2 1 0 13 6 12 20 16 17 15 11 11 7 8 6 2 13 12 9 8 5 5
19 19 19 20 20 21 21 22 23 23 24 25 25 26 26 27 26 27 27 26 21 19 18 8 5 9 2 5 4 10 5 18 14 14 14 8 11 8 7 4 13 6 14 17 9 10 6
19 19 19 20 20 21 21 22 23 24 25 25 25 25 25 27 27 28 28 28 24 19 13 7 10 5 1 17 8 12 1 5 12 19 14 12 5 11 7 1 8 8 11 8 7 7 8
19 19 20 20 21 21 21 22 23 24 24 24 25 26 26 27 27 27 28 28 22 13 6 11 10 3 9 7 6 11 3 4 7 7 4 10 5 3 3 2 5 4 5 3 3 7 5
19 19 19 20 20 20 21 22 23 23 24 24 24 24 27 27 28 27 29 26 19 4 9 11 4 4 11 5 3 6 6 5 9 6 4 8 3 4 1 2 5 3 4 7 7 10 3
19 19 19 20 21 21 21 23 24 24 25 26 27 28 27 29 30 29 31 23 4 9 6 6 2 1 4 9 8 12 6 7 6 9 4 3 4 4 2 5 14 6 5 4 6 5 7
18 19 20 20 21 21 22 23 24 25 26 27 27 28 27 30 29 28 16 6 8 7 5 4 10 4 12 8 6 4 5 4 6 6 8 7 5 20 32 16 5 4 4 6 4 8 7
18 19 20 21 21 21 22 23 24 25 26 26 27 27 28 31 30 25 4 7 8 5 11 9 11 7 10 1 4 16 5 4 7 7 6 5 18 18 5 8 10 7 5 6 5 6 9
18 18 19 19 20 21 22 23 24 25 26 27 27 26 27 30 29 4 2 2 6 5 1 10 5 5 7 1 2 12 11 5 5 9 13 10 8 16 10 11 13 14 16 10 8 3 10
17 17 17 18 19 21 22 23 25 25 27 28 30 30 29 33 4 5 6 4 3 5 5 7 5 7 12 4 3 9 6 2 5 13 11 14 21 12 16 17 16 14 16 13 14 5 5
16 16 17 18 19 20 22 23 24 27 28 28 30 30 28 13 4 3 6 9 5 5 3 2 5 3 7 8 9 16 10 6 1 9 4 15 14 17 17 23 19 14 8 10 10 3 5
16 17 18 18 19 20 21 23 24 26 29 30 31 31 29 1 1 6 10 6 4 6 5 3 4 7 7 9 7 9 6 6 3 5 6 11 10 13 25 13 13 5 5 4 1 4 10
16 17 19 19 20 20 21 22 24 25 29 30 32 33 16 1 4 7 6 6 6 4 6 4 4 5 5 8 8 13 10 16 7 8 9 11 16 17 8 16 9 12 9 3 4 7 12
17 17 17 19 19 20 21 22 24 25 28 30 33 28 4 4 7 4 4 6 3 3 1 3 3 2 4 8 5 7 5 3 14 7 2 5 9 12 8 14 12 12 12 8 10 5 6
17 16 16 17 19 20 21 21 23 25 27 30 26 5 5 4 7 2 7 4 3 4 5 5 2 4 4 3 2 6 6 4 4 7 5 5 10 14 20 15 17 11 19 11 5 3 2
16 17 17 17 18 19 20 20 22 24 26 28 8 5 5 9 5 5 6 4 3 5 6 2 2 2 3 4 2 4 3 4 4 8 3 4 9 7 14 10 17 20 10 8 5 9 8
16 17 17 17 18 19 20 20 20 23 24 21 4 5 4 14 3 6 3 4 4 6 7 2 3 2 3 2 2 1 4 3 3 5 7 2 3 10 11 7 24 12 11 5 6 5 11
17 17 16 17 17 18 19 19 18 18 21 6 3 4 6 8 7 3 2 6 6 4 4 3 2 2 2 3 2 4 4 2 6 1 2 2 1 8 12 18 17 12 11 8 12 12 3
16 17 17 17 17 17 18 17 16 15 11 4 6 4 5 5 4 4 6 7 7 4 3 3 3 2 1 1 2 4 2 5 12 6 3 1 1 8 8 2 2 5 13 16 9 4 11
17 17 18 18 17 18 17 15 14 14 11 3 3 5 5 6 3 3 5 5 5 7 7 2 4 1 0 2 4 4 4 5 8 4 5 5 3 7 8 7 9 12 18 10 11 14 6
18 18 19 18 18 17 17 15 13 12 9 3 2 2 1 4 2 3 3 5 9 5 4 3 4 1 3 4 3 6 7 3 8 5 5 2 6 10 16 26 20 20 22 22 12 10 18
18 18 19 19 19 18 16 14 14 11 5 3 1 2 1 3 6 6 3 3 9 7 4 6 7 8 7 6 8 6 6 5 6 4 4 5 4 4 17 24 21 20 18 17 19 14 7
19 19 19 19 18 18 16 13 12 9 1 1 1 1 1 3 2 2 3 4 6 9 8 11 8 11 11 14 15 14 11 11 9 11 9 6 3 2 9 5 4 6 7 13 4 15 4
19 19 20 19 19 18 15 13 12 8 4 2 2 0 1 4 3 4 6 16 15 13 9 9 13 9 5 11 12 6 9 15 12 15 12 5 4 3 8 7 8 10 10 8 22 20 18
18 20 21 20 18 17 14 13 12 9 7 3 2 2 2 3 4 8 10 8 9 9 5 8 8 5 8 5 1 4 3 4 13 16 13 11 3 4 4 4 5 1 8 10 5 19 21
18 18 19 19 18 16 14 13 12 10 8 2 2 3 2 1 3 5 6 6 3 4 5 5 9 6 4 2 1 4 4 5 8 9 14 12 9 4 4 1 5 3 18 19 11 12 22
19 19 18 17 17 15 14 13 12 10 6 2 2 4 2 1 3 2 3 3 2 4 3 6 8 7 4 3 3 2 3 5 3 5 5 5 5 7 8 5 3 8 21 13 9 1 14
18 18 17 16 15 14 13 13 12 9 5 3 2 4 3 1 4 2 4 3 3 2 3 5 5 3 4 5 4 4 4 6 5 5 3 3 2 0 4 2 2 14 10 10 4 2 6
18 17 16 15 14 14 13 12 9 5 1 5 0 2 2 2 4 2 4 5 5 3 3 3 3 3 2 3 4 4 4 5 8 3 4 4 4 4 4 3 4 6 4 6 10 6 8
Wind_Direction
21 18 15 12 9 6 3 0 358 354 350 347 345 341 338 335 334 330 327 319 316 312 307 296 276 227 179 247 253 306 25 156 169 166 173 163 153 153 175 195 183 233 256 264 266 242 149
19 15 12 10 7 5 2 358 356 352 350 346 342 339 336 332 332 328 325 319 320 317 312 294 213 135 159 250 251 25 128 147 177 174 179 156 180 168 183 210 195 200 237 263 273 281 164
15 12 9 8 5 2 359 356 353 350 347 343 338 335 332 329 328 325 324 317 320 321 321 139 170 143 225 242 331 338 159 173 180 182 173 198 164 172 163 168 251 251 288 299 250 253 176
12 9 7 5 2 358 356 354 351 347 343 339 336 333 330 328 326 326 322 316 323 320 108 127 167 189 251 261 312 306 153 196 182 241 335 189 138 154 177 280 349 158 190 269 257 204 235
10 7 4 2 358 355 353 351 348 345 341 338 335 334 330 328 327 328 320 314 321 129 133 146 137 131 277 285 330 300 198 211 152 189 284 186 139 183 113 138 3 309 190 188 276 200 168
7 4 1 358 356 354 352 350 346 343 341 339 337 335 334 328 331 329 322 309 1 120 133 181 128 291 281 305 306 306 278 185 145 122 119 171 168 167 103 146 212 202 189 196 190 216 168
5 1 358 356 354 352 351 347 344 343 341 338 335 334 336 328 332 327 334 10 15 350 41 250 275 266 276 272 278 325 296 191 121 118 166 191 162 201 210 206 173 182 212 196 213 191 143
2 358 355 353 351 348 346 347 343 340 338 337 335 335 337 329 329 323 319 68 121 248 309 298 262 240 271 220 326 347 1 174 171 179 155 140 217 217 203 190 203 231 250 258 293 182 186
358 354 350 348 347 346 345 343 340 338 336 336 334 335 338 332 324 13 316 179 115 135 274 300 257 287 321 57 322 15 12 328 237 204 190 196 238 189 201 199 190 211 222 235 231 109 203
353 349 346 346 346 344 343 340 337 337 336 336 336 338 338 334 15 328 300 312 322 166 55 283 330 355 5 66 344 22 352 301 307 216 214 223 230 197 198 216 194 215 209 221 245 144 199
350 347 346 346 343 343 340 337 337 338 335 336 333 333 333 330 279 315 288 311 316 63 347 18 19 340 14 38 287 356 330 332 212 282 282 220 196 223 205 211 199 228 163 200 234 194 150
348 346 345 345 341 339 338 337 338 337 334 335 331 330 335 72 297 268 301 321 54 46 236 28 73 350 40 6 352 342 356 359 21 350 270 235 293 206 222 216 213 169 186 192 258 139 245
344 343 342 340 338 337 339 338 337 335 333 332 331 327 330 270 287 294 320 28 42 146 348 23 345 356 95 346 3 9 16 39 8 14 17 329 249 257 242 208 213 197 138 230 251 206 235
339 337 336 337 336 336 336 338 336 335 333 333 330 320 269 235 264 323 44 44 175 30 44 326 334 77 82 21 17 16 353 40 36 14 58 13 275 230 237 215 191 207 182 166 194 188 216
333 333 334 333 332 334 336 338 335 335 333 335 329 324 319 282 307 81 63 36 221 355 312 333 349 57 325 28 344 48 356 93 66 35 50 348 267 317 300 255 196 197 207 192 102 349 170
327 328 332 331 330 332 336 338 335 334 335 335 325 341 288 315 16 61 76 236 279 3 321 39 118 56 319 318 53 57 327 97 100 99 98 39 301 284 304 298 240 208 158 186 219 189 226
325 326 326 328 328 330 333 335 336 335 338 337 24 6 271 324 69 52 128 243 301 8 348 30 196 251 249 335 15 307 219 16 61 40 104 163 186 287 334 227 220 210 202 198 154 190 223
322 319 323 324 325 327 329 332 334 337 336 45 8 354 324 346 53 34 36 317 301 340 348 313 189 186 192 223 253 234 187 180 65 155 330 90 297 277 250 278 301 297 215 169 200 215 247
320 320 321 320 323 325 328 329 331 334 1 323 339 281 318 34 56 350 320 298 268 331 302 342 299 123 206 206 303 226 153 74 68 56 110 270 82 304 290 262 324 255 203 209 208 112 208
322 323 322 320 323 325 324 328 327 327 343 85 3 344 330 34 76 72 326 299 299 310 282 309 271 282 327 235 221 252 217 194 148 147 170 133 230 220 271 304 323 300 318 328 205 218 191
320 320 320 320 324 325 322 325 324 320 340 88 55 284 217 319 332 324 279 277 288 292 280 44 310 233 1 249 254 221 224 226 97 60 97 253 236 247 255 265 272 272 275 285 286 220 206
315 318 319 320 322 323 322 327 323 326 9 78 48 20 344 270 295 279 269 251 289 302 336 254 230 281 310 236 217 253 261 220 199 129 145 220 258 281 271 252 237 247 257 256 249 246 211
313 316 319 319 322 322 324 327 314 312 47 274 238 299 181 254 266 281 251 249 276 296 262 259 285 311 281 256 243 238 238 251 180 161 182 214 182 262 265 308 273 219 335 291 139 41 337
313 314 318 320 323 321 320 319 309 298 235 193 226 113 200 271 234 244 272 284 294 296 281 267 277 274 259 314 313 276 238 240 219 190 160 216 139 236 269 296 171 150 31 340 81 49 18
314 315 318 321 322 317 320 319 310 299 273 195 185 190 186 262 255 284 307 311 312 299 290 273 267 235 301 286 327 277 283 218 221 187 186 203 179 269 264 314 100 92 356 341 359 43 18
315 314 318 322 320 320 321 314 311 306 299 218 200 171 171 276 255 280 302 325 312 311 321 301 321 307 347 11 268 242 219 191 195 183 195 193 204 270 307 208 164 269 309 302 228 47 354
315 318 323 322 323 322 320 317 313 313 313 199 247 163 128 222 275 259 296 302 259 278 280 295 329 324 13 343 300 265 216 268 56 90 137 171 209 220 233 254 180 324 319 308 65 320 336
317 324 324 324 323 320 319 316 316 316 311 158 264 171 160 201 284 238 283 297 266 210 304 320 338 3 328 5 340 326 320 15 44 37 118 63 327 282 249 93 94 347 351 74 180 1 342
322 326 325 323 322 322 322 319 320 310 254 147 198 96 141 203 265 268 251 253 254 256 289 305 321 335 324 327 356 320 348 344 351 48 10 62 5 286 44 277 288 14 23 74 55 19 1